FW4179 Weather Reports


time (UTC)temp
C
wind
direction
speed
KPH
gust
KPH
rain 1hr
cm
rain 24hr
cm
rain mn
cm
humidity
%
barometer
mb
20260905050051 24 0 0.0 0.0 0.00 0.00 0.00 92 1016.0
20260905044601 25 0 0.0 0.0 0.00 0.00 0.00 92 1015.9
20260905043058 25 0 0.0 0.0 0.00 0.00 0.00 91 1016.0
20260905041556 25 0 0.0 0.0 0.00 0.00 0.00 90 1016.2
20260905040104 25 0 0.0 0.0 0.00 0.00 0.00 88 1016.2
20260905034557 25 0 0.0 0.0 0.00 0.00 0.00 87 1016.4
20260905033104 26 0 0.0 0.0 0.00 0.00 0.00 86 1016.4
20260905031600 26 0 0.0 0.0 0.00 0.00 0.00 85 1016.5
20260905030100 26 0 0.0 0.0 0.00 0.00 0.00 84 1016.7
20260905024621 26 0 0.0 4.8 0.00 0.00 0.00 83 1016.5
20260905023123 27 0 0.0 1.6 0.00 0.00 0.00 82 1016.6
20260905021602 27 0 0.0 1.6 0.00 0.00 0.00 82 1016.8
20260905020108 27 0 0.0 0.0 0.00 0.00 0.00 82 1016.7
20260905014616 27 0 0.0 0.0 0.00 0.00 0.00 82 1016.7
20260905013105 27 0 0.0 0.0 0.00 0.00 0.00 81 1016.7
20260905011606 27 0 0.0 0.0 0.00 0.00 0.00 80 1016.6
20260905010058 28 0 0.0 0.0 0.00 0.00 0.00 78 1016.6
20260905004602 28 0 0.0 0.0 0.00 0.00 0.00 76 1016.3
20260905003100 28 0 0.0 0.0 0.00 0.00 0.00 75 1016.1
20260905001557 29 0 0.0 0.0 0.00 0.00 0.00 76 1016.0
20260905000105 30 0 0.0 0.0 0.00 0.00 0.00 76 1016.2
20260904234558 31 0 0.0 0.0 0.00 0.00 0.00 72 1016.1
20260904233059 31 0 0.0 0.0 0.00 0.00 0.00 70 1015.9
20260904231559 32 0 0.0 3.2 0.00 0.00 0.00 68 1015.8
20260904230105 32 149 3.2 8.0 0.00 0.00 0.00 67 1015.7
20260904224605 32 147 4.8 9.7 0.00 0.00 0.00 63 1015.6
20260904223103 33 136 4.8 8.0 0.00 0.00 0.00 63 1015.5
20260904221606 33 140 6.4 12.9 0.00 0.00 0.00 61 1015.5
20260904220059 33 135 4.8 12.9 0.00 0.00 0.00 59 1015.6
20260904214557 34 147 3.2 12.9 0.00 0.00 0.00 58 1015.6
20260904213100 33 137 3.2 11.3 0.00 0.00 0.00 60 1015.4
20260904211603 33 131 6.4 14.5 0.00 0.00 0.00 60 1015.7
20260904210059 33 182 6.4 16.1 0.00 0.00 0.00 61 1015.8
20260904204557 32 107 4.8 14.5 0.00 0.00 0.00 60 1016.0
20260904203100 35 134 8.0 16.1 0.00 0.00 0.00 56 1016.2
20260904201633 36 0 0.0 4.8 0.00 0.00 0.00 52 1016.1
20260904200058 36 0 1.6 8.0 0.00 0.00 0.00 51 1016.0
20260904194609 36 0 0.0 6.4 0.00 0.00 0.00 51 1016.3
20260904193104 36 15 0.0 6.4 0.00 0.00 0.00 51 1016.6
20260904191559 36 338 0.0 6.4 0.00 0.00 0.00 53 1016.9
20260904190059 36 221 0.0 11.3 0.00 0.00 0.00 56 1016.9
20260904184601 35 269 3.2 9.7 0.00 0.00 0.00 55 1017.1
20260904183057 35 0 1.6 11.3 0.00 0.00 0.00 57 1017.3
20260904181556 35 0 1.6 9.7 0.00 0.00 0.00 55 1017.5
20260904180059 35 0 0.0 6.4 0.00 0.00 0.00 54 1017.7
20260904174556 35 94 0.0 6.4 0.00 0.00 0.00 57 1018.0
20260904173120 35 0 1.6 9.7 0.00 0.00 0.00 56 1018.1
20260904171609 35 0 0.0 4.8 0.00 0.00 0.00 56 1018.3
20260904170058 35 88 0.0 4.8 0.00 0.00 0.00 56 1018.4
20260904164559 33 0 0.0 6.4 0.00 0.00 0.00 63 1018.6
20260904163054 33 267 1.6 6.4 0.00 0.00 0.00 64 1018.6
20260904161558 33 0 0.0 9.7 0.00 0.00 0.00 62 1018.8
20260904160101 32 26 0.0 6.4 0.00 0.00 0.00 66 1018.9
20260904154557 32 0 1.6 8.0 0.00 0.00 0.00 66 1018.9
20260904153055 32 0 0.0 4.8 0.00 0.00 0.00 70 1018.9
20260904151614 31 167 0.0 6.4 0.00 0.00 0.00 71 1019.0
20260904150124 30 0 0.0 9.7 0.00 0.00 0.00 71 1019.0
20260904144556 30 191 0.0 6.4 0.00 0.00 0.00 74 1018.9
20260904143104 29 146 3.2 8.0 0.00 0.00 0.00 75 1018.8
20260904141612 28 154 3.2 4.8 0.00 0.00 0.00 78 1018.7
20260904134603 27 140 0.0 0.0 0.00 0.00 0.00 82 1018.6
20260904133100 26 0 0.0 0.0 0.00 0.00 0.00 84 1018.6
20260904131558 26 0 0.0 0.0 0.00 0.00 0.00 86 1018.5
20260904130058 25 0 0.0 0.0 0.00 0.00 0.00 88 1018.6
20260904124558 24 0 0.0 0.0 0.00 0.00 0.00 90 1018.5
20260904123058 24 0 0.0 0.0 0.00 0.00 0.00 90 1018.4
20260904121556 23 0 0.0 0.0 0.00 0.00 0.00 91 1018.2
20260904120106 23 0 0.0 0.0 0.00 0.00 0.00 92 1018.3
20260904114558 23 0 0.0 0.0 0.00 0.00 0.00 92 1018.1
20260904113102 23 0 0.0 0.0 0.00 0.00 0.00 93 1018.1
20260904111602 23 0 0.0 0.0 0.00 0.00 0.00 92 1017.9
20260904110059 23 0 0.0 0.0 0.00 0.00 0.00 91 1017.5
20260904104600 23 140 1.6 4.8 0.00 0.00 0.00 92 1017.3
20260904103056 23 139 1.6 4.8 0.00 0.00 0.00 92 1017.3
20260904101555 23 0 0.0 3.2 0.00 0.00 0.00 92 1017.3
20260904100058 23 134 1.6 6.4 0.00 0.00 0.00 94 1017.2
20260904094603 22 0 0.0 0.0 0.00 0.00 0.00 94 1017.4
20260904093107 22 0 0.0 0.0 0.00 0.00 0.00 94 1017.3
20260904091555 22 0 0.0 0.0 0.00 0.00 0.00 94 1017.1
20260904090100 23 0 0.0 0.0 0.00 0.00 0.00 94 1017.0
20260904084600 23 0 0.0 0.0 0.00 0.00 0.00 93 1017.1
20260904083056 23 0 0.0 0.0 0.00 0.00 0.00 94 1017.0
20260904081601 23 0 0.0 0.0 0.00 0.00 0.00 93 1017.0
20260904080057 23 0 0.0 0.0 0.00 0.00 0.00 93 1017.0
20260904074557 23 0 0.0 0.0 0.00 0.00 0.00 92 1016.8
20260904073054 23 0 0.0 0.0 0.00 0.00 0.00 91 1016.8
20260904071553 23 0 0.0 0.0 0.00 0.00 0.00 90 1017.0
20260904070055 24 0 0.0 0.0 0.00 0.00 0.00 89 1017.0
20260904064557 24 0 0.0 0.0 0.00 0.00 0.00 89 1017.1
20260904063059 24 0 0.0 0.0 0.00 0.00 0.00 89 1017.1
20260904061559 24 0 0.0 0.0 0.00 0.00 0.00 88 1017.2
20260904060059 25 0 0.0 0.0 0.00 0.00 0.00 87 1017.2
20260904054557 25 0 0.0 0.0 0.00 0.00 0.00 87 1017.3
20260904053058 25 0 0.0 0.0 0.00 0.00 0.00 84 1017.4
20260904051558 26 0 0.0 0.0 0.00 0.00 0.00 83 1017.4